Monroe Regional Airport Monroe US
ICAO: KMLU
IATA: MLU
Category: Large
Scheduled Services: Yes

Elevation: 79 ft
TransAlt. 18000 ft.

Airport Communications:
APP/DEP:118.15
ATIS:125.05
CLNC DEL:121.65
CTAF:118.9
GND:121.9
DE RIDDER RDO:122.25
TWR:118.9
UNICOM:122.95

KMLU Zoom In..

If you have problems with the map follow the link
https://www.worldairports.se/pages/airport.php?
ICAO=KMLU

Runways:

(A) RW 04 length 7505 ft width 150 ft
ILS 109.50 / hdg 42

(B) RW 14 length 4999 ft width 150 ft
---- / hdg 137

(C) RW 18 length 5001 ft width 150 ft
---- / hdg 177

(D) RW 22 length 7505 ft width 150 ft
ILS 109.50 / hdg 222

(E) RW 32 length 4999 ft width 150 ft
---- / hdg 317

(F) RW 36 length 5001 ft width 150 ft
---- / hdg 357

Location; KMLU
Day. 17 / Time. 21.53 Zulu
* Altimeter: 30.24
* Temperature: 16° c. 60.8°f.
* Wind from: 160° Speed 07 kn.
Dewpoint: 08° c.
Visibility: 10 Statute Miles.
Clouds: Scattered 2400 ft.

KMLU 172153Z 16007KT 10SM SCT024 16/08 A3024 RMK AO2 SLP239 T01610083


Wind From 160°
Speed 07 kn.

 
 
jpsmedia worldairports.se 2020   terms of use